Regional Weather Roundup
Issued by NWS

Home | Current Version | Previous Version | Graphics & Text | Print | Product List | Glossary On
Versions: 1 2 3 4 5 6 7 8 9 10 11 12 13 14 15 16 17 18 19 20 21 22 23 24 25 26 27 28 29 30 31 32 33 34 35 36 37 38 39 40 41 42 43 44 45 46 47 48 49 50
000
ASUS43 KMPX 160410
RWRMN
WEATHER ROUNDUP FOR MINNESOTA
NATIONAL WEATHER SERVICE TWIN CITIES/CHANHASSEN MN
1100 PM CDT TUE APR 15 2014


NOTE: "FAIR" INDICATES FEW OR NO CLOUDS BELOW 12,000 FEET WITH NO
SIGNIFICANT WEATHER AND/OR OBSTRUCTIONS TO VISIBILITY. N/A MEANS
CURRENT SKY AND/OR WEATHER CONDITIONS ARE NOT AVAILABLE.

MNZ060>063-068>070-160500-
   Twin Cities Metro

CITY           SKY/WX    TMP DP  RH WIND       PRES   REMARKS
TWIN CITIES    CLOUDY    34  13  41 SE10      30.07F WCI  26
ST PAUL        CLOUDY    35  15  44 SE9       30.09F WCI  28
CRYSTAL        CLOUDY    36   9  32 E6        30.06F
BLAINE         CLOUDY    36  10  35 SE6       30.07F
EDEN PRAIRIE   CLOUDY    36  10  34 E9        30.05F
LAKEVILLE      CLOUDY    30  19  64 SE7       30.06F WCI  23
SOUTH ST PAUL  CLOUDY    37  15  40 SE5       30.08F
LAKE ELMO      CLOUDY    32  14  47 E3        30.09S
$$
MNZ001>005-007-008-013>017-022>024-027-028-160500-
   Northwest Minnesota

CITY           SKY/WX    TMP DP  RH WIND       PRES   REMARKS
BEMIDJI        CLOUDY    26   6  43 E7        30.04R WCI  18
HALLOCK        CLOUDY    28  12  50 E12       30.06S WCI  18
ROSEAU         PTCLDY    23  10  58 E6        30.09R WCI  16
WARROAD        PTCLDY    19  10  68 E3        30.09S
THIEF RVR FALL CLOUDY    27   9  46 E10       30.04F WCI  17
CROOKSTON      CLOUDY    30  12  47 E10G17    30.03F WCI  21
FOSSTON        CLOUDY    27   9  46 E7        30.02F WCI  19
DETROIT LAKES  CLOUDY    32   9  37 E9        29.99S WCI  24
MOORHEAD       CLOUDY    34  12  40 E12G17    29.99R WCI  25
PARK RAPIDS    CLOUDY    29   5  36 E7        30.01S WCI  22
$$
MNZ006-009>011-018-025>026-160500-
   North Central Minnesota

CITY           SKY/WX    TMP DP  RH WIND       PRES   REMARKS
BAUDETTE       PTCLDY    20   6  55 NE5       30.09R WCI  13
FLAG ISLAND    PTCLDY    18   7  62 CALM      30.09S
INTL FALLS     CLEAR     17  10  74 CALM      30.09R
WASKISH        PTCLDY    23   9  54 NE6       30.07S WCI  16
BIG FORK       PTCLDY    19   9  63 CALM      30.07S
LONGVILLE      MOCLDY    25   9  50 CALM      30.05S
GRAND RAPIDS   MOCLDY    21   5  49 SE3       30.06S
CRANE LAKE     CLEAR      9   3  78 CALM      30.12R
ORR            CLEAR     18   3  53 CALM      30.07R
COOK           CLEAR     19   7  58 CALM      30.09R
$$
MNZ012-019>021-037-160500-
   Northeast Minnesota

CITY           SKY/WX    TMP DP  RH WIND       PRES   REMARKS
DULUTH         CLEAR     26   4  38 CALM      30.08R
ELY            CLEAR     14   7  73 CALM      30.09R
HIBBING        PTCLDY    19   7  59 CALM      30.07R
EVELETH        CLEAR     19  10  68 NE3       30.09R
DULUTH HARBOR  CLEAR     28   7  40 CALM      30.13R
TWO HARBORS    CLEAR     19  10  68 CALM      30.08S
SILVER BAY     CLEAR     16  10  79 CALM      30.09R
GRAND MARAIS     N/A     24   4  42 N5        30.13R WCI  18
G MARAIS ARPRT CLEAR     10   1  67 NW3       30.06R
$$
MNZ029>031-032-039>041-046>048-054>057-064-160500-
   West Central Minnesota

CITY           SKY/WX    TMP DP  RH WIND       PRES   REMARKS
FERGUS FALLS   CLOUDY    32   9  37 SE16G22   29.96R WCI  21
WHEATON        CLOUDY    36  18  48 E20       29.95R
MORRIS         CLOUDY    34  12  40 E22       29.93F WCI  22
ALEXANDRIA     CLOUDY    31  12  45 E14       29.98S WCI  21
ELBOW LAKE     CLOUDY    32  13  46 E18       29.95F WCI  20
WADENA         CLOUDY    28  10  47 E9        30.00S WCI  20
GLENWOOD       CLOUDY    30  12  47 E17       29.98S WCI  18
APPLETON       CLOUDY    36  12  38 E18G24    29.92F
BENSON         CLOUDY    34  12  40 SE15G22   29.95F WCI  24
ORTONVILLE     CLOUDY    34  10  37 E21G29    29.89F WCI  22
MADISON        CLOUDY    37  19  48 E20G29    29.89F
WILLMAR        FAIR      34  10  37 E16       29.98F WCI  23
$$
MNZ033>034-036-042>043-049>051-058-059-160500-
   Central Minnesota

CITY           SKY/WX    TMP DP  RH WIND       PRES   REMARKS
ST CLOUD       CLOUDY    33   7  33 E6        30.04F WCI  28
SAUK CENTRE    CLOUDY    31  14  49 E9        30.00F WCI  23
PAYNESVILLE    CLOUDY    32  10  40 E9        30.01S WCI  24
AITKIN         MOCLDY    27  16  63 CALM      30.05S
PINE RIVER     MOCLDY    27  10  50 E6        30.07F WCI  20
BRAINERD       CLOUDY    32   5  32 VRB3      30.05F
STAPLES        CLOUDY    28   5  37 E7        30.02S WCI  21
LONG PRAIRIE   MOCLDY    30  10  43 E8        30.01F WCI  23
LITTLE FALLS   CLOUDY    32  12  43 E7        30.04F WCI  26
LITCHFIELD     CLOUDY    34  14  44 E12       30.01F WCI  25
BUFFALO        CLOUDY    33  12  42 E7        30.05F WCI  27
MAPLE LAKE     CLOUDY    33  15  48 E8        30.05S WCI  26
$$
MNZ037-044-045-052-053-160500-
   East Central Minnesota

CITY           SKY/WX    TMP DP  RH WIND       PRES   REMARKS
PRINCETON      CLOUDY    32   9  37 E5        30.07S WCI  27
MORA           CLOUDY    28  14  54 CALM      30.09F
CAMBRIDGE      CLOUDY    34  14  44 CALM      30.06F
RUSH CITY      CLOUDY    29  10  43 CALM      30.09S
MOOSE LAKE     MOCLDY    25  12  58 CALM      30.07S
HINCKLEY       FAIR      27  19  74 CALM      30.09S
CLOQUET        CLEAR     23   5  46 CALM      30.09R
MCGREGOR       PTCLDY    27  10  50 CALM      30.07S
$$
MNZ071>073-080-081-089-090-097-098-160500-
   Southwest Minnesota

CITY           SKY/WX    TMP DP  RH WIND       PRES   REMARKS
MONTEVIDEO     CLOUDY    34  16  47 SE21      29.94S WCI  22
GRANITE FALLS  CLOUDY    35  15  45 E15G23    29.95S WCI  25
CANBY          CLOUDY    34  22  60 E16       29.90S WCI  24
MARSHALL       MOCLDY    36  19  51 E17G26    29.90S
REDWOOD FALLS  CLOUDY    35  16  45 E14       29.96S WCI  26
OLIVIA         CLOUDY    34  16  47 E14G22    29.96F WCI  24
PIPESTONE      CLOUDY    36  25  64 SE21G26   29.81F
WINDOM         CLOUDY    36  23  60 E16       29.93S
WORTHINGTON    MOCLDY    36  21  55 SE18      29.89S
JACKSON        MOCLDY    34  23  64 SE18G24   29.93S WCI  23
TRACY          MOCLDY    36  23  60 E15G21    29.90F
SLAYTON        CLOUDY    34  24  66 E20G28    29.88F WCI  23
$$
MNZ065>067-074>077-082>085-091>093-160500-
   South Central Minnesota

CITY           SKY/WX    TMP DP  RH WIND       PRES   REMARKS
MANKATO        CLOUDY    34  18  51 E14       30.03S WCI  24
NEW ULM        CLOUDY    34  18  51 E13       29.99S WCI  25
ST JAMES       CLOUDY    36  21  55 E15       29.99S
FAIRMONT       MOCLDY    34  21  60 SE15      29.99R WCI  24
GLENCOE        CLOUDY    35  12  39 E12       30.02F WCI  26
FARIBAULT      CLOUDY    37  12  35 E7        30.06S
OWATONNA       CLOUDY    34  18  51 E10       30.05S WCI  26
WASECA         CLOUDY    34  23  64 E10       30.05S WCI  26
ALBERT LEA     CLOUDY    34  19  55 E10       30.03S WCI  26
$$
MNZ078>079-086>088-094>096-160500-
   Southeast Minnesota

CITY           SKY/WX    TMP DP  RH WIND       PRES   REMARKS
ROCHESTER      CLOUDY    31  20  63 SE8       30.07F WCI  23
RED WING       CLOUDY    36  16  44 SE5       30.09F
STANTON        CLOUDY    34  17  51 E6        30.06S WCI  29
DODGE CENTER   CLOUDY    34  21  60 SE9       30.06S WCI  26
WINONA         PTCLDY    32  19  59 CALM      30.14S
AUSTIN         CLOUDY    30  21  69 E9        30.05F WCI  22
PRESTON        CLOUDY    31  18  57 SE6       30.08F WCI  26
$$
ABBREVIATIONS USED IN REMARKS
   TC - TEMPERATURES IN CELSIUS
  WCI - WIND CHILL INDEX
   HX - HEAT INDEX
  VSB - VISIBILITY
$$



USA.gov is the U.S. government's official web portal to all federal, state and local government web resources and services.